GW7169 Weather Reports


time (UTC)temp
F
wind
direction
speed
knots
gust
knots
rain 1hr
in
rain 24hr
in
rain mn
in
humidity
%
barometer
mb
20260508141345 82 311 0.0 0.0 0.00 0.00 0.00 20 1017.3
20260508140844 82 304 0.9 0.9 0.00 0.00 0.00 20 1016.9
20260508140345 82 342 0.9 0.0 0.00 0.00 0.00 21 1016.9
20260508135845 81 51 0.9 0.9 0.00 0.00 0.00 21 1016.9
20260508135344 82 350 0.0 0.0 0.00 0.00 0.00 22 1017.3
20260508134844 81 306 1.7 1.7 0.00 0.00 0.00 22 1016.9
20260508134344 80 76 0.9 0.9 0.00 0.00 0.00 22 1016.9
20260508133844 80 35 0.9 0.9 0.00 0.00 0.00 22 1017.3
20260508133344 82 321 0.9 0.9 0.00 0.00 0.00 22 1017.3
20260508132846 82 311 0.9 1.7 0.00 0.00 0.00 22 1017.3
20260508132344 83 75 0.9 0.9 0.00 0.00 0.00 21 1017.3
20260508131845 82 330 0.9 0.9 0.00 0.00 0.00 21 1017.3
20260508131344 82 268 0.0 0.0 0.00 0.00 0.00 22 1017.3
20260508130845 80 21 0.0 0.0 0.00 0.00 0.00 22 1017.3
20260508130345 80 7 1.7 1.7 0.00 0.00 0.00 22 1017.3
20260508125846 80 57 0.9 0.9 0.00 0.00 0.00 22 1017.3
20260508125344 80 324 0.9 0.9 0.00 0.00 0.00 22 1017.3
20260508124845 81 60 1.7 1.7 0.00 0.00 0.00 22 1017.6
20260508124344 81 6 0.9 0.9 0.00 0.00 0.00 22 1017.6
20260508123845 80 251 0.9 0.9 0.00 0.00 0.00 23 1017.6
20260508123344 80 292 0.9 0.9 0.00 0.00 0.00 23 1017.6
20260508122844 81 92 1.7 1.7 0.00 0.00 0.00 22 1017.6
20260508121856 81 358 0.9 0.9 0.00 0.00 0.00 22 1017.6
20260508121344 81 146 0.9 0.9 0.00 0.00 0.00 22 1017.6
20260508120846 80 74 1.7 1.7 0.00 0.00 0.00 23 1017.9
20260508120344 80 57 0.9 1.7 0.00 0.00 0.00 23 1017.6
20260508115845 79 69 0.9 1.7 0.00 0.00 0.00 23 1017.9
20260508115344 80 49 3.5 4.3 0.00 0.00 0.00 23 1017.9
20260508114844 79 210 0.9 0.0 0.00 0.00 0.00 23 1017.9
20260508114345 79 323 0.9 0.9 0.00 0.00 0.00 23 1017.9
20260508113844 79 285 0.9 0.0 0.00 0.00 0.00 24 1018.3
20260508113344 81 342 1.7 1.7 0.00 0.00 0.00 23 1017.9
20260508112845 80 216 0.0 0.0 0.00 0.00 0.00 24 1017.9
20260508112346 79 69 1.7 0.9 0.00 0.00 0.00 24 1018.3
20260508111845 79 312 0.9 0.9 0.00 0.00 0.00 24 1018.6
20260508111344 79 66 0.9 0.0 0.00 0.00 0.00 24 1018.3
20260508110845 78 212 0.9 0.0 0.00 0.00 0.00 24 1018.3
20260508110344 79 86 2.6 2.6 0.00 0.00 0.00 23 1018.6
20260508105844 78 289 0.9 0.9 0.00 0.00 0.00 24 1018.6
20260508105344 78 33 0.9 1.7 0.00 0.00 0.00 24 1018.3
20260508104845 78 40 2.6 5.2 0.00 0.00 0.00 24 1018.3
20260508104345 77 277 1.7 1.7 0.00 0.00 0.00 25 1018.6
20260508103844 77 319 1.7 1.7 0.00 0.00 0.00 24 1018.6
20260508103345 77 6 0.9 0.9 0.00 0.00 0.00 25 1019.0
20260508102844 78 45 2.6 5.2 0.00 0.00 0.00 24 1018.6
20260508102345 78 35 0.9 0.9 0.00 0.00 0.00 24 1019.0
20260508101845 78 34 0.9 0.9 0.00 0.00 0.00 25 1019.0
20260508101348 77 88 0.9 0.9 0.00 0.00 0.00 26 1018.6
20260508100845 77 344 0.0 0.0 0.00 0.00 0.00 26 1019.0
20260508100344 78 256 1.7 1.7 0.00 0.00 0.00 25 1019.0
20260508095846 77 300 0.9 1.7 0.00 0.00 0.00 25 1019.0
20260508095344 75 40 1.7 1.7 0.00 0.00 0.00 26 1019.0
20260508094847 76 72 3.5 5.2 0.00 0.00 0.00 26 1019.0
20260508094345 75 6 0.9 0.9 0.00 0.00 0.00 28 1019.0
20260508093845 76 295 1.7 2.6 0.00 0.00 0.00 28 1019.0
20260508093344 77 65 2.6 2.6 0.00 0.00 0.00 27 1019.0
20260508092846 76 336 0.9 0.0 0.00 0.00 0.00 27 1019.0
20260508092344 75 284 0.9 1.7 0.00 0.00 0.00 28 1019.0
20260508091845 75 103 0.9 1.7 0.00 0.00 0.00 29 1019.3
20260508091345 74 83 3.5 4.3 0.00 0.00 0.00 29 1019.3
20260508090845 74 45 0.9 1.7 0.00 0.00 0.00 30 1019.3
20260508090344 73 77 0.9 0.9 0.00 0.00 0.00 29 1019.3
20260508085844 73 83 6.1 7.0 0.00 0.00 0.00 29 1019.3
20260508085344 75 83 2.6 7.0 0.00 0.00 0.00 29 1019.6
20260508084845 75 320 0.9 0.9 0.00 0.00 0.00 29 1019.6
20260508084344 73 290 0.9 1.7 0.00 0.00 0.00 30 1019.6
20260508083845 73 114 1.7 1.7 0.00 0.00 0.00 30 1019.6
20260508083345 74 89 3.5 7.0 0.00 0.00 0.00 29 1020.0
20260508082845 74 269 0.9 0.9 0.00 0.00 0.00 30 1020.0
20260508082344 73 304 1.7 1.7 0.00 0.00 0.00 31 1020.0
20260508081846 73 69 0.9 0.9 0.00 0.00 0.00 31 1019.6
20260508081345 73 66 2.6 1.7 0.00 0.00 0.00 31 1020.0
20260508080845 73 260 1.7 1.7 0.00 0.00 0.00 31 1019.6
20260508080345 73 110 2.6 5.2 0.00 0.00 0.00 31 1020.0
20260508075846 72 51 0.9 0.9 0.00 0.00 0.00 31 1019.6
20260508075344 72 82 4.3 6.1 0.00 0.00 0.00 31 1020.0
20260508074844 73 47 1.7 1.7 0.00 0.00 0.00 31 1020.0
20260508074344 72 80 0.9 1.7 0.00 0.00 0.00 31 1020.0
20260508073844 72 47 1.7 1.7 0.00 0.00 0.00 31 1020.3
20260508073344 72 65 4.3 5.2 0.00 0.00 0.00 31 1020.0
20260508072846 72 351 3.5 5.2 0.00 0.00 0.00 31 1020.0
20260508072345 71 335 2.6 4.3 0.00 0.00 0.00 32 1020.0
20260508071845 72 310 2.6 2.6 0.00 0.00 0.00 31 1020.0
20260508071345 72 93 1.7 2.6 0.00 0.00 0.00 31 1020.0
20260508070844 71 44 0.9 0.9 0.00 0.00 0.00 32 1020.0
20260508070344 71 175 0.9 0.9 0.00 0.00 0.00 31 1020.3
20260508065845 71 37 2.6 2.6 0.00 0.00 0.00 32 1020.0
20260508065344 71 335 1.7 1.7 0.00 0.00 0.00 32 1020.3
20260508064844 71 129 3.5 5.2 0.00 0.00 0.00 32 1020.0
20260508064344 71 110 2.6 2.6 0.00 0.00 0.00 32 1020.3
20260508063845 70 54 0.9 1.7 0.00 0.00 0.00 32 1020.0
20260508063345 70 28 1.7 2.6 0.00 0.00 0.00 32 1020.3
20260508062845 70 22 2.6 2.6 0.00 0.00 0.00 32 1020.3
20260508062346 70 59 0.9 0.9 0.00 0.00 0.00 32 1020.3
20260508061845 70 58 2.6 4.3 0.00 0.00 0.00 32 1020.0
20260508061344 70 62 3.5 5.2 0.00 0.00 0.00 32 1020.3
20260508060844 70 266 1.7 2.6 0.00 0.00 0.00 32 1020.3
20260508060345 69 82 2.6 2.6 0.00 0.00 0.00 33 1020.3
20260508055844 69 351 2.6 2.6 0.00 0.00 0.00 33 1020.3
20260508055344 69 71 3.5 4.3 0.00 0.00 0.00 33 1020.3
20260508054845 69 68 1.7 2.6 0.00 0.00 0.00 33 1020.3
20260508054345 69 106 0.9 1.7 0.00 0.00 0.00 33 1020.0
20260508053846 69 36 2.6 2.6 0.00 0.00 0.00 33 1020.3
20260508053344 68 339 0.9 0.9 0.00 0.00 0.00 35 1020.0
20260508052844 69 117 2.6 2.6 0.00 0.00 0.00 34 1020.0
20260508052347 69 24 2.6 1.7 0.00 0.00 0.00 35 1020.3
20260508051845 69 15 1.7 1.7 0.00 0.00 0.00 35 1020.0
20260508051344 68 59 1.7 1.7 0.00 0.00 0.00 35 1020.0
20260508050844 68 67 1.7 1.7 0.00 0.00 0.00 35 1020.3
20260508050344 68 275 2.6 4.3 0.00 0.00 0.00 35 1020.0
20260508045844 68 39 2.6 2.6 0.00 0.00 0.00 35 1020.0
20260508045345 67 52 3.5 4.3 0.00 0.00 0.00 36 1020.0
20260508044845 67 90 4.3 6.1 0.00 0.00 0.00 36 1020.0
20260508044344 67 56 1.7 1.7 0.00 0.00 0.00 37 1019.6
20260508043844 67 78 4.3 7.8 0.00 0.00 0.00 36 1020.0
20260508043344 67 65 2.6 4.3 0.00 0.00 0.00 37 1020.0
20260508042845 66 73 3.5 5.2 0.00 0.00 0.00 37 1019.6
20260508042346 66 90 3.5 5.2 0.00 0.00 0.00 37 1019.6
20260508041845 66 61 1.7 1.7 0.00 0.00 0.00 38 1019.6
20260508041344 66 77 0.0 0.0 0.00 0.00 0.00 38 1019.6
20260508040845 66 68 4.3 6.1 0.00 0.00 0.00 38 1019.6
20260508040345 66 47 0.0 0.0 0.00 0.00 0.00 39 1019.3
20260508035845 65 65 2.6 5.2 0.00 0.00 0.00 39 1019.3
20260508035344 65 22 2.6 2.6 0.00 0.00 0.00 39 1019.6
20260508034844 64 81 2.6 2.6 0.00 0.00 0.00 40 1019.3
20260508034345 64 76 2.6 2.6 0.00 0.00 0.00 40 1019.6
20260508033844 64 16 0.0 0.0 0.00 0.00 0.00 40 1019.3
20260508033345 64 73 0.0 0.0 0.00 0.00 0.00 40 1019.0
20260508032844 64 71 0.9 0.9 0.00 0.00 0.00 41 1019.3
20260508032344 63 69 1.7 2.6 0.00 0.00 0.00 41 1019.0
20260508031844 63 70 1.7 2.6 0.00 0.00 0.00 41 1019.0
20260508031345 63 76 2.6 4.3 0.00 0.00 0.00 42 1019.0
20260508030844 62 66 1.7 2.6 0.00 0.00 0.00 42 1019.0
20260508030344 61 81 1.7 1.7 0.00 0.00 0.00 44 1019.0
20260508025844 61 61 0.9 0.9 0.00 0.00 0.00 44 1019.0
20260508025344 61 61 1.7 1.7 0.00 0.00 0.00 45 1019.0
20260508024845 61 72 0.9 1.7 0.00 0.00 0.00 45 1019.0
20260508024346 61 64 2.6 2.6 0.00 0.00 0.00 45 1019.0
20260508023846 61 72 0.9 0.9 0.00 0.00 0.00 45 1019.0
20260508023345 61 57 0.9 0.9 0.00 0.00 0.00 45 1018.6
20260508022844 61 74 0.9 0.9 0.00 0.00 0.00 45 1019.0
20260508022344 61 70 1.7 1.7 0.00 0.00 0.00 45 1018.6
20260508021844 61 70 0.0 0.0 0.00 0.00 0.00 45 1018.6
20260508021345 61 57 0.9 0.9 0.00 0.00 0.00 45 1018.6
20260508020845 61 62 0.9 0.9 0.00 0.00 0.00 46 1019.0
20260508020345 61 65 0.0 0.0 0.00 0.00 0.00 46 1019.0
20260508015848 60 81 0.9 0.9 0.00 0.00 0.00 47 1019.0
20260508015344 60 81 0.0 0.0 0.00 0.00 0.00 48 1018.6
20260508014844 60 81 0.0 0.0 0.00 0.00 0.00 48 1018.3
20260508014344 60 81 0.0 0.0 0.00 0.00 0.00 48 1018.3
20260508013845 60 81 0.9 0.9 0.00 0.00 0.00 48 1018.6
20260508013345 60 69 0.9 0.9 0.00 0.00 0.00 48 1018.6
20260508012844 60 76 0.0 0.0 0.00 0.00 0.00 48 1018.3
20260508012345 60 75 0.0 0.0 0.00 0.00 0.00 48 1018.6
20260508011844 61 75 0.0 0.0 0.00 0.00 0.00 47 1018.6
20260508011345 60 74 0.0 0.0 0.00 0.00 0.00 47 1018.6
20260508010844 61 74 0.0 0.0 0.00 0.00 0.00 47 1018.6
20260508010344 61 74 0.0 0.0 0.00 0.00 0.00 47 1019.0
20260508005845 61 76 0.9 0.9 0.00 0.00 0.00 47 1018.6
20260508005344 61 78 0.0 0.0 0.00 0.00 0.00 47 1018.6
20260508004845 61 74 0.0 0.0 0.00 0.00 0.00 47 1018.6
20260508004344 61 46 0.0 0.0 0.00 0.00 0.00 47 1018.6
20260508003846 61 11 1.7 1.7 0.00 0.00 0.00 47 1019.0
20260508003344 61 299 0.9 1.7 0.00 0.00 0.00 47 1019.0
20260508002844 62 67 0.0 0.0 0.00 0.00 0.00 46 1019.0
20260508002344 62 69 0.0 0.9 0.00 0.00 0.00 46 1019.0
20260508001844 62 71 0.9 0.0 0.00 0.00 0.00 46 1018.6
20260508001345 62 85 2.6 2.6 0.00 0.00 0.00 45 1018.6
20260508000844 62 91 0.9 0.9 0.00 0.00 0.00 46 1018.6
20260508000344 61 65 0.9 0.9 0.00 0.00 0.00 47 1019.0
20260507235848 60 55 0.0 0.0 0.00 0.00 0.00 50 1019.0
20260507235345 60 36 0.0 0.0 0.00 0.00 0.00 51 1018.6
20260507234844 60 36 0.0 0.0 0.00 0.00 0.00 50 1018.6
20260507234344 60 36 0.0 0.0 0.00 0.00 0.00 50 1018.6
20260507233406 60 36 0.0 0.0 0.00 0.00 0.00 49 1018.6
20260507232844 61 36 0.0 0.0 0.00 0.00 0.00 48 1018.6
20260507232344 61 36 0.0 0.0 0.00 0.00 0.00 47 1018.6
20260507231844 62 36 0.0 0.0 0.00 0.00 0.00 47 1018.6
20260507231344 62 36 0.0 0.0 0.00 0.00 0.00 47 1018.6
20260507230845 62 35 0.0 0.0 0.00 0.00 0.00 46 1018.6
20260507230344 62 35 0.0 0.0 0.00 0.00 0.00 46 1018.3
20260507225845 62 35 0.0 0.0 0.00 0.00 0.00 46 1018.6
20260507225346 61 31 0.0 0.0 0.00 0.00 0.00 47 1018.6
20260507224844 61 32 0.0 0.0 0.00 0.00 0.00 47 1019.0
20260507224344 62 32 0.0 0.0 0.00 0.00 0.00 47 1018.6
20260507223845 62 32 0.0 0.0 0.00 0.00 0.00 46 1018.6
20260507223344 62 32 0.0 0.0 0.00 0.00 0.00 46 1018.6
20260507222845 62 31 0.0 0.0 0.00 0.00 0.00 45 1018.6
20260507222344 62 32 0.0 0.0 0.00 0.00 0.00 45 1019.0
20260507221845 63 32 0.0 0.0 0.00 0.00 0.00 45 1018.6
20260507221344 63 32 0.0 0.0 0.00 0.00 0.00 44 1018.6
20260507220845 63 32 0.0 0.0 0.00 0.00 0.00 44 1019.0
20260507220346 63 27 0.0 0.0 0.00 0.00 0.00 43 1018.6
20260507215845 64 27 0.0 0.0 0.00 0.00 0.00 43 1018.6
20260507215344 64 27 0.0 0.0 0.00 0.00 0.00 42 1018.6
20260507214845 64 350 0.9 0.9 0.00 0.00 0.00 42 1018.6
20260507214345 64 69 0.0 0.0 0.00 0.00 0.00 42 1018.6
20260507213845 64 66 0.9 1.7 0.00 0.00 0.00 42 1018.6
20260507213345 64 35 0.0 0.0 0.00 0.00 0.00 43 1019.0
20260507212846 64 36 0.9 0.9 0.00 0.00 0.00 41 1018.6
20260507212344 64 39 0.0 0.0 0.00 0.00 0.00 42 1018.6
20260507211844 64 41 0.0 0.0 0.00 0.00 0.00 42 1018.6
20260507211344 64 41 0.0 0.0 0.00 0.00 0.00 42 1018.6
20260507210845 64 35 0.0 0.0 0.00 0.00 0.00 42 1018.6
20260507210344 64 35 0.0 0.0 0.00 0.00 0.00 43 1018.6
20260507205844 64 35 0.0 0.0 0.00 0.00 0.00 42 1018.6
20260507205346 65 35 0.0 0.0 0.00 0.00 0.00 42 1018.6
20260507204845 65 40 0.0 0.0 0.00 0.00 0.00 41 1018.3
20260507204344 64 40 0.9 0.0 0.00 0.00 0.00 42 1018.3
20260507203845 65 39 0.0 0.0 0.00 0.00 0.00 42 1018.3
20260507203345 65 24 0.0 0.0 0.00 0.00 0.00 42 1018.3
20260507202844 65 24 0.0 0.0 0.00 0.00 0.00 41 1018.3
20260507202344 65 21 0.0 0.0 0.00 0.00 0.00 41 1018.3
20260507201844 65 87 0.0 0.0 0.00 0.00 0.00 41 1018.3
20260507201344 65 24 0.0 0.0 0.00 0.00 0.00 41 1018.3
20260507200844 65 5 0.9 0.9 0.00 0.00 0.00 41 1018.3
20260507200344 65 21 0.0 0.0 0.00 0.00 0.00 41 1018.6
20260507195845 65 68 0.0 0.0 0.00 0.00 0.00 41 1018.3
20260507195344 65 67 0.0 0.0 0.00 0.00 0.00 40 1018.6
20260507194844 66 67 0.0 0.0 0.00 0.00 0.00 40 1018.6
20260507194345 66 67 0.0 0.0 0.00 0.00 0.00 39 1018.3
20260507193844 66 67 0.0 0.0 0.00 0.00 0.00 39 1018.3
20260507193345 66 69 0.0 0.0 0.00 0.00 0.00 39 1018.3
20260507192845 66 72 0.0 0.0 0.00 0.00 0.00 38 1018.3
20260507192345 66 71 0.0 0.0 0.00 0.00 0.00 38 1018.3
20260507191845 66 71 0.0 0.0 0.00 0.00 0.00 39 1018.3
20260507191344 66 71 0.0 0.0 0.00 0.00 0.00 39 1018.3
20260507190846 66 72 0.0 0.0 0.00 0.00 0.00 39 1018.3
20260507190345 67 71 0.0 0.0 0.00 0.00 0.00 38 1018.3
20260507185844 67 71 0.0 0.0 0.00 0.00 0.00 37 1018.3
20260507185346 68 73 0.0 0.0 0.00 0.00 0.00 36 1018.3
20260507184845 68 89 0.9 0.9 0.00 0.00 0.00 36 1018.3
20260507184344 68 49 0.9 0.0 0.00 0.00 0.00 36 1017.9
20260507183844 68 74 0.0 0.0 0.00 0.00 0.00 35 1018.3
20260507183345 68 64 0.0 0.0 0.00 0.00 0.00 35 1018.3
20260507182848 68 71 0.0 0.0 0.00 0.00 0.00 35 1017.9
20260507182345 67 19 0.0 0.0 0.00 0.00 0.00 35 1017.9
20260507181844 67 46 0.9 0.9 0.00 0.00 0.00 36 1017.9
20260507181345 67 49 0.0 0.0 0.00 0.00 0.00 36 1017.9
20260507180844 68 50 0.9 0.9 0.00 0.00 0.00 35 1017.6
20260507180349 68 247 0.0 0.0 0.00 0.00 0.00 35 1017.6
20260507175845 68 247 0.0 0.0 0.00 0.00 0.00 34 1017.3
20260507175344 68 247 0.0 0.0 0.00 0.00 0.00 34 1017.3
20260507174845 68 247 0.0 0.0 0.00 0.00 0.00 34 1017.6
20260507174345 68 246 0.0 0.0 0.00 0.00 0.00 33 1017.3
20260507173845 69 253 0.0 0.0 0.00 0.00 0.00 32 1017.3
20260507173344 68 258 0.9 0.9 0.00 0.00 0.00 31 1017.3
20260507172844 68 84 0.0 0.0 0.00 0.00 0.00 28 1017.3
20260507172345 68 73 0.0 0.0 0.00 0.00 0.00 28 1017.3
20260507171844 68 73 0.0 0.0 0.00 0.00 0.00 28 1017.3
20260507171344 69 73 0.0 0.0 0.00 0.00 0.00 27 1017.3
20260507170845 69 73 0.0 0.0 0.00 0.00 0.00 27 1016.9
20260507170346 69 73 0.0 0.0 0.00 0.00 0.00 27 1016.9
20260507165845 69 73 0.0 0.0 0.00 0.00 0.00 26 1016.9
20260507165345 70 73 0.0 0.0 0.00 0.00 0.00 26 1016.9
20260507164844 70 73 0.0 0.0 0.00 0.00 0.00 25 1016.9
20260507164345 71 73 0.0 0.0 0.00 0.00 0.00 25 1016.6
20260507163845 71 72 0.9 0.9 0.00 0.00 0.00 25 1016.6
20260507163346 71 61 0.9 0.9 0.00 0.00 0.00 25 1016.6
20260507162845 71 18 0.9 0.9 0.00 0.00 0.00 25 1016.6
20260507162344 71 57 0.9 0.9 0.00 0.00 0.00 25 1016.3
20260507161846 71 16 0.0 0.0 0.00 0.00 0.00 24 1016.6
20260507161345 71 78 0.9 0.9 0.00 0.00 0.00 25 1016.6
20260507160852 71 92 1.7 2.6 0.00 0.00 0.00 24 1016.6
20260507160346 71 15 0.9 0.9 0.00 0.00 0.00 24 1016.6
20260507155846 72 83 0.9 0.9 0.00 0.00 0.00 24 1016.3
20260507155348 72 57 0.0 0.0 0.00 0.00 0.00 23 1016.3
20260507154846 73 58 0.9 0.0 0.00 0.00 0.00 23 1016.3
20260507154345 73 74 1.7 1.7 0.00 0.00 0.00 22 1016.3
20260507153845 73 68 1.7 1.7 0.00 0.00 0.00 22 1016.3
20260507153344 73 291 0.9 0.9 0.00 0.00 0.00 22 1015.9
20260507152845 73 349 0.9 1.7 0.00 0.00 0.00 22 1016.3
20260507152344 74 30 0.0 0.9 0.00 0.00 0.00 22 1016.3
20260507151845 75 338 0.0 0.0 0.00 0.00 0.00 21 1015.9
20260507151346 76 346 0.0 0.0 0.00 0.00 0.00 20 1015.9
20260507150845 76 346 0.9 0.0 0.00 0.00 0.00 21 1015.9
20260507150346 77 345 0.9 0.9 0.00 0.00 0.00 20 1016.3
20260507145844 76 89 0.0 0.0 0.00 0.00 0.00 20 1015.9
20260507145345 77 84 0.0 0.0 0.00 0.00 0.00 20 1015.9
20260507144844 77 77 0.9 0.9 0.00 0.00 0.00 20 1015.9
20260507144350 77 15 0.0 0.0 0.00 0.00 0.00 20 1015.9
20260507143855 78 261 0.0 0.0 0.00 0.00 0.00 20 1016.3
20260507143344 78 261 0.0 0.0 0.00 0.00 0.00 19 1015.9
20260507142845 78 256 0.0 0.0 0.00 0.00 0.00 19 1016.3
20260507142345 76 293 0.0 0.9 0.00 0.00 0.00 20 1015.9
20260507141844 76 98 0.9 0.9 0.00 0.00 0.00 20 1016.3